TimeCDT,TemperatureF,Dew PointF,Humidity,Sea Level PressureIn,VisibilityMPH,Wind Direction,Wind SpeedMPH,Gust SpeedMPH,PrecipitationIn,Events,Conditions,WindDirDegrees,DateUTC
12:15 AM,61.7,52.2,71,29.81,10.0,North,12.7,20.7,N/A,,Overcast,360,2013-04-11 05:15:00
12:35 AM,61.7,51.8,70,29.82,10.0,North,13.8,19.6,N/A,,Overcast,360,2013-04-11 05:35:00
12:55 AM,61.2,51.8,71,29.83,10.0,North,11.5,-,N/A,,Overcast,360,2013-04-11 05:55:00
1:15 AM,60.1,52.0,75,29.83,10.0,North,11.5,21.9,N/A,,Overcast,360,2013-04-11 06:15:00
1:35 AM,58.8,51.8,77,29.84,10.0,NNW,12.7,-,N/A,,Overcast,340,2013-04-11 06:35:00
1:55 AM,58.8,51.6,77,29.84,10.0,North,11.5,21.9,N/A,,Overcast,350,2013-04-11 06:55:00
2:15 AM,59.2,51.3,75,29.84,10.0,North,10.4,16.1,N/A,,Overcast,350,2013-04-11 07:15:00
2:35 AM,59.9,51.1,73,29.83,10.0,North,8.1,-,N/A,,Overcast,360,2013-04-11 07:35:00
2:55 AM,59.9,50.9,72,29.83,10.0,NNW,11.5,-,N/A,,Overcast,330,2013-04-11 07:55:00
3:15 AM,59.0,50.0,72,29.83,10.0,North,12.7,20.7,N/A,,Overcast,350,2013-04-11 08:15:00
3:35 AM,59.0,49.1,70,29.83,10.0,North,15.0,20.7,N/A,,Overcast,350,2013-04-11 08:35:00
3:55 AM,59.0,49.1,70,29.84,10.0,North,16.1,23.0,N/A,,Overcast,350,2013-04-11 08:55:00
4:15 AM,58.1,49.1,72,29.85,10.0,North,16.1,24.2,N/A,,Overcast,350,2013-04-11 09:15:00
4:35 AM,58.1,47.1,67,29.84,10.0,North,15.0,24.2,N/A,,Overcast,360,2013-04-11 09:35:00
4:55 AM,57.9,47.5,68,29.86,10.0,North,12.7,21.9,N/A,,Overcast,10,2013-04-11 09:55:00
5:35 AM,57.2,47.8,71,29.86,10.0,NNE,10.4,19.6,N/A,,Overcast,20,2013-04-11 10:35:00
5:55 AM,57.0,47.5,70,29.86,10.0,NNE,11.5,-,N/A,,Overcast,20,2013-04-11 10:55:00
6:15 AM,56.5,46.9,70,29.88,10.0,North,9.2,16.1,N/A,,Overcast,10,2013-04-11 11:15:00
6:35 AM,56.3,46.4,69,29.89,10.0,North,9.2,16.1,N/A,,Unknown,10,2013-04-11 11:35:00
6:55 AM,55.2,45.1,69,29.89,10.0,NNE,15.0,23.0,N/A,,Unknown,20,2013-04-11 11:55:00
7:15 AM,54.9,44.6,68,29.91,10.0,North,9.2,20.7,N/A,,Unknown,360,2013-04-11 12:15:00
7:35 AM,54.1,42.1,64,29.91,10.0,NNE,16.1,24.2,N/A,,Unknown,20,2013-04-11 12:35:00
7:55 AM,54.0,42.3,65,29.92,10.0,NNE,10.4,18.4,N/A,,Unknown,20,2013-04-11 12:55:00
8:15 AM,54.7,42.8,64,29.92,10.0,North,8.1,-,N/A,,Unknown,10,2013-04-11 13:15:00
8:35 AM,55.0,42.3,62,29.93,10.0,North,10.4,-,N/A,,Clear,360,2013-04-11 13:35:00
8:55 AM,55.9,42.4,61,29.94,10.0,North,9.2,17.3,N/A,,Clear,350,2013-04-11 13:55:00
9:15 AM,57.7,42.6,57,29.94,10.0,North,10.4,16.1,N/A,,Clear,360,2013-04-11 14:15:00
9:35 AM,58.8,43.2,56,29.95,10.0,North,10.4,17.3,N/A,,Clear,360,2013-04-11 14:35:00
9:55 AM,59.5,42.6,54,29.94,10.0,NNW,10.4,-,N/A,,Clear,340,2013-04-11 14:55:00
10:15 AM,60.8,42.8,52,29.95,10.0,North,9.2,-,N/A,,Clear,360,2013-04-11 15:15:00
10:35 AM,61.7,42.8,50,29.96,10.0,North,11.5,18.4,N/A,,Clear,360,2013-04-11 15:35:00
10:55 AM,63.1,43.2,48,29.96,10.0,NNE,12.7,18.4,N/A,,Clear,30,2013-04-11 15:55:00
11:15 AM,64.2,43.0,46,29.96,10.0,North,11.5,19.6,N/A,,Clear,350,2013-04-11 16:15:00
11:35 AM,64.9,42.8,45,29.96,10.0,North,11.5,17.3,N/A,,Clear,10,2013-04-11 16:35:00
12:15 PM,66.9,42.3,41,29.94,10.0,NNE,13.8,18.4,N/A,,Clear,20,2013-04-11 17:15:00
12:35 PM,67.8,42.1,39,29.93,10.0,NNE,13.8,18.4,N/A,,Clear,30,2013-04-11 17:35:00
12:55 PM,68.4,41.4,37,29.93,10.0,NNE,12.7,17.3,N/A,,Clear,20,2013-04-11 17:55:00
1:15 PM,70.0,40.5,34,29.91,10.0,NNE,10.4,16.1,N/A,,Clear,20,2013-04-11 18:15:00
1:35 PM,71.1,40.5,33,29.89,10.0,NNE,10.4,16.1,N/A,,Clear,30,2013-04-11 18:35:00
1:55 PM,72.1,40.5,32,29.88,10.0,North,9.2,-,N/A,,Clear,10,2013-04-11 18:55:00
2:15 PM,73.8,40.1,30,29.87,10.0,NE,12.7,17.3,N/A,,Clear,40,2013-04-11 19:15:00
2:35 PM,75.0,40.1,28,29.86,10.0,NE,10.4,-,N/A,,Clear,40,2013-04-11 19:35:00
2:55 PM,75.4,40.1,28,29.85,10.0,NE,10.4,-,N/A,,Clear,40,2013-04-11 19:55:00
3:15 PM,76.3,39.4,26,29.84,10.0,NE,5.8,9.2,N/A,,Clear,50,2013-04-11 20:15:00
3:35 PM,77.5,40.3,26,29.83,10.0,NE,9.2,-,N/A,,Clear,40,2013-04-11 20:35:00
3:55 PM,77.9,39.2,25,29.81,10.0,East,8.1,17.3,N/A,,Clear,90,2013-04-11 20:55:00
4:15 PM,78.3,39.4,25,29.80,10.0,East,9.2,-,N/A,,Clear,80,2013-04-11 21:15:00
4:35 PM,78.1,38.3,24,29.79,10.0,NE,12.7,-,N/A,,Clear,50,2013-04-11 21:35:00
4:55 PM,77.4,39.2,25,29.79,10.0,East,12.7,16.1,N/A,,Clear,90,2013-04-11 21:55:00
5:15 PM,77.2,39.4,26,29.79,10.0,East,8.1,-,N/A,,Clear,90,2013-04-11 22:15:00
5:35 PM,76.3,39.9,27,29.79,10.0,East,11.5,17.3,N/A,,Clear,80,2013-04-11 22:35:00
5:55 PM,75.6,40.1,28,29.79,10.0,ENE,11.5,17.3,N/A,,Clear,60,2013-04-11 22:55:00
6:15 PM,73.9,39.9,29,29.79,10.0,East,9.2,18.4,N/A,,Clear,90,2013-04-11 23:15:00
6:35 PM,72.5,40.5,31,29.80,10.0,East,10.4,16.1,N/A,,Clear,90,2013-04-11 23:35:00
6:55 PM,71.2,41.0,33,29.80,10.0,East,9.2,16.1,N/A,,Clear,90,2013-04-11 23:55:00
7:15 PM,69.8,41.2,35,29.80,10.0,East,11.5,-,N/A,,Clear,100,2013-04-12 00:15:00
7:35 PM,68.4,41.9,38,29.81,10.0,East,11.5,16.1,N/A,,Clear,90,2013-04-12 00:35:00
7:55 PM,66.9,43.9,43,29.81,10.0,East,8.1,-,N/A,,Clear,80,2013-04-12 00:55:00
8:15 PM,65.7,44.8,47,29.82,10.0,East,6.9,-,N/A,,Clear,90,2013-04-12 01:15:00
8:35 PM,64.8,45.7,50,29.82,10.0,East,5.8,-,N/A,,Clear,90,2013-04-12 01:35:00
8:55 PM,63.9,46.4,53,29.83,10.0,East,5.8,-,N/A,,Clear,100,2013-04-12 01:55:00
9:15 PM,63.1,47.3,56,29.84,10.0,ESE,5.8,-,N/A,,Clear,120,2013-04-12 02:15:00
9:35 PM,62.6,48.7,60,29.85,10.0,ESE,6.9,-,N/A,,Clear,110,2013-04-12 02:35:00
9:55 PM,61.9,49.8,65,29.86,10.0,ESE,5.8,-,N/A,,Clear,110,2013-04-12 02:55:00
10:15 PM,61.2,50.2,67,29.87,10.0,SE,4.6,-,N/A,,Clear,130,2013-04-12 03:15:00
10:35 PM,60.8,50.4,68,29.88,10.0,SE,3.5,-,N/A,,Clear,140,2013-04-12 03:35:00
10:55 PM,59.9,50.5,71,29.89,10.0,SSE,3.5,-,N/A,,Clear,150,2013-04-12 03:55:00
11:15 PM,59.9,50.5,71,29.89,10.0,Calm,Calm,-,N/A,,Clear,0,2013-04-12 04:15:00
11:35 PM,59.4,50.7,73,29.90,10.0,SE,3.5,-,N/A,,Clear,140,2013-04-12 04:35:00
11:55 PM,59.4,50.9,74,29.90,10.0,SE,3.5,-,N/A,,Clear,130,2013-04-12 04:55:00